Weather at Bou Gara Airport [CLOSED]

Public forecast

Using degrees Celsius for public forecast. Weather courtesy of forecast.io.

Closest aviation weather report (METAR) to Bou Gara Airport

Report is more than 6 hours old.

Closest report is Yélimané Airport, 85.1 nm (157.6 km) S. Retrieved 2020/10/11 13:05 UTC (8 months ago):

GAYE 111305Z 14008KT 6000 TSRA FEW030 FEW040CB 27/24 Q1012

Closest aviation forecast (TAF) to Bou Gara Airport

Forecast is more than 12 hours old.

Closest forecast is Nouakchott International Airport, 310.1 nm (574.4 km) WNW. Retrieved 2016/06/26 18:52 UTC (5 years ago):

TAF GQNN 261700Z 2618/2800 28010KT 6000 NSC BECMG 2619/2621 BKN008 PROB40 TEMPO 2704/2708 4000 BR BECMG 2709/2711 FEW010